This is the latest recevied weather packets stored in our database for station/object SR5NLK-1. If no packets are shown the sender has not sent any weather packets the latest 10 day(s).
| Time | Temp. | Humidity | Pressure | Rain* | Wind** | Luminosity | Snow |
|---|---|---|---|---|---|---|---|
| 1787399411 | 20° C | 62% | 1070.5 hPa | 0 mm | - | - | - |
| 1787399111 | 20.56° C | 59% | 1062.7 hPa | 0 mm | - | - | - |
| 1787398849 | 20.56° C | 58% | 1046 hPa | 0 mm | - | - | - |
| 1787398812 | 20.56° C | 58% | 1046 hPa | 0 mm | - | - | - |
| 1787398511 | 21.11° C | 59% | 1075.2 hPa | 0 mm | - | - | - |
| 1787398211 | 21.11° C | 59% | 1075.2 hPa | 0 mm | - | - | - |
| 1787398091 | 21.11° C | 59% | 1027.1 hPa | 0 mm | - | - | - |
| 1787397912 | 21.11° C | 61% | 1081.5 hPa | 0 mm | - | - | - |
| 1787397651 | 20.56° C | 62% | 1062.6 hPa | 0 mm | - | - | - |
| 1787397612 | 20.56° C | 62% | 1062.6 hPa | 0 mm | - | - | - |
| 1787397312 | 20.56° C | 64% | 1083.2 hPa | 0 mm | - | - | - |
| 1787397012 | 20° C | 66% | 1058.5 hPa | 0 mm | - | - | - |
| 1787396712 | 19.44° C | 68% | 1100.3 hPa | 0 mm | - | - | - |
| 1787396412 | 18.89° C | 68% | 1068.9 hPa | 0 mm | - | - | - |
| 1787396111 | 18.89° C | 66% | 1047.9 hPa | 0 mm | - | - | - |
| 1787395812 | 19.44° C | 64% | 1081.5 hPa | 0 mm | - | - | - |
| 1787395512 | 19.44° C | 63% | 1090.9 hPa | 0 mm | - | - | - |
| 1787395212 | 19.44° C | 63% | 1090.9 hPa | 0 mm | - | - | - |
| 1787394912 | 19.44° C | 63% | 1011.4 hPa | 0 mm | - | - | - |
| 1787394612 | 19.44° C | 63% | 1092.7 hPa | 0 mm | - | - | - |
| 1787394312 | 19.44° C | 64% | 1072.1 hPa | 0 mm | - | - | - |
| 1787394131 | 18.89° C | 65% | 1036.5 hPa | 0 mm | - | - | - |
| 1787394012 | 18.89° C | 65% | 1030.3 hPa | 0 mm | - | - | - |
| 1787393712 | 18.89° C | 65% | 1072.1 hPa | 0 mm | - | - | - |
| 1787393459 | 18.89° C | 64% | 1068.9 hPa | 0 mm | - | - | - |
* Rain latest hour (hover to see other rain measurements)
** Current wind speed in m/s (hover to see current wind gust speed)